Stündliche Wetter Juliszew

Heute, 5 März, Freitag

Zeit Temperatur Niederschläge Wind Luftdruck Luftfeuchtigkeit
00:00 -2°C° 0.1 mm 4 m/S 756 mmHg 86%
01:00 -2°C° 0 mm 4 m/S 756 mmHg 81%
02:00 -1°C° 0 mm 3 m/S 756 mmHg 82%
03:00 -2°C° 0 mm 3 m/S 756 mmHg 83%
04:00 -2°C° 0 mm 3 m/S 756 mmHg 83%
05:00 -2°C° 0 mm 3 m/S 757 mmHg 82%
06:00 -2°C° 0 mm 3 m/S 757 mmHg 81%
07:00 -2°C° 0 mm 3 m/S 758 mmHg 80%
08:00 -2°C° 0 mm 4 m/S 758 mmHg 71%
09:00 -1°C° 0 mm 4 m/S 758 mmHg 63%
10:00 0°C° 0 mm 4 m/S 759 mmHg 55%
11:00 0°C° 0 mm 4 m/S 759 mmHg 53%
12:00 +2°C° 0 mm 3 m/S 759 mmHg 50%
13:00 +1°C° 0 mm 4 m/S 760 mmHg 46%
14:00 +1°C° 0.1 mm 4 m/S 760 mmHg 47%
15:00 +1°C° 0.1 mm 4 m/S 760 mmHg 49%
16:00 +1°C° 0.1 mm 4 m/S 760 mmHg 50%
17:00 0°C° 0 mm 4 m/S 761 mmHg 54%
18:00 0°C° 0 mm 3 m/S 761 mmHg 57%
19:00 -1°C° 0 mm 3 m/S 762 mmHg 61%
20:00 -2°C° 0 mm 3 m/S 762 mmHg 63%
21:00 -2°C° 0 mm 3 m/S 763 mmHg 66%
22:00 -2°C° 0 mm 3 m/S 763 mmHg 69%
23:00 -2°C° 0 mm 3 m/S 764 mmHg 72%

Morgen, 6 März, Samstag

Zeit Temperatur Niederschläge Wind Luftdruck Luftfeuchtigkeit
00:00 -2°C° 0 mm 3 m/S 764 mmHg 74%
01:00 -4°C° 0 mm 3 m/S 764 mmHg 77%
02:00 -4°C° 0 mm 3 m/S 764 mmHg 77%
03:00 -4°C° 0 mm 3 m/S 764 mmHg 76%
04:00 -4°C° 0 mm 3 m/S 764 mmHg 76%
05:00 -4°C° 0 mm 3 m/S 765 mmHg 76%
06:00 -4°C° 0 mm 3 m/S 765 mmHg 75%
07:00 -4°C° 0 mm 3 m/S 765 mmHg 75%
08:00 -1°C° 0 mm 3 m/S 765 mmHg 68%
09:00 0°C° 0 mm 3 m/S 766 mmHg 60%
10:00 +1°C° 0 mm 3 m/S 766 mmHg 53%
11:00 +1°C° 0 mm 4 m/S 765 mmHg 50%
12:00 +3°C° 0 mm 4 m/S 765 mmHg 46%
13:00 +2°C° 0 mm 5 m/S 765 mmHg 43%
14:00 +2°C° 0 mm 5 m/S 764 mmHg 44%
15:00 +2°C° 0 mm 5 m/S 764 mmHg 46%
16:00 +2°C° 0 mm 5 m/S 763 mmHg 47%
17:00 +1°C° 0 mm 5 m/S 763 mmHg 53%
18:00 0°C° 0 mm 5 m/S 763 mmHg 58%
19:00 -2°C° 0 mm 5 m/S 762 mmHg 63%
20:00 -1°C° 0 mm 5 m/S 762 mmHg 67%
21:00 -2°C° 0 mm 6 m/S 762 mmHg 70%
22:00 -2°C° 0 mm 6 m/S 762 mmHg 73%
23:00 -2°C° 0 mm 6 m/S 761 mmHg 79%

übermorgen, 7 März, Sonntag

Zeit Temperatur Niederschläge Wind Luftdruck Luftfeuchtigkeit
00:00 -2°C° 0 mm 7 m/S 761 mmHg 84%
01:00 -2°C° 0 mm 7 m/S 760 mmHg 90%
02:00 -2°C° 0 mm 7 m/S 760 mmHg 87%
03:00 -2°C° 0 mm 8 m/S 759 mmHg 85%
04:00 -2°C° 0 mm 8 m/S 758 mmHg 83%
05:00 -2°C° 0 mm 8 m/S 758 mmHg 81%
06:00 -3°C° 0 mm 9 m/S 758 mmHg 80%
07:00 -4°C° 0 mm 9 m/S 758 mmHg 79%
08:00 -3°C° 0 mm 9 m/S 758 mmHg 77%
09:00 -1°C° 0 mm 9 m/S 757 mmHg 74%
10:00 -1°C° 0 mm 9 m/S 757 mmHg 72%
11:00 0°C° 0 mm 9 m/S 757 mmHg 71%
12:00 0°C° 0 mm 9 m/S 757 mmHg 71%
13:00 0°C° 0 mm 9 m/S 757 mmHg 70%
14:00 0°C° 0 mm 9 m/S 757 mmHg 75%
15:00 -1°C° 0 mm 8 m/S 756 mmHg 80%
16:00 -1°C° 0 mm 8 m/S 756 mmHg 85%
17:00 -2°C° 0 mm 8 m/S 756 mmHg 86%
18:00 -2°C° 0 mm 7 m/S 756 mmHg 87%
19:00 -2°C° 0 mm 7 m/S 756 mmHg 88%
20:00 -3°C° 0.5 mm 6 m/S 756 mmHg 89%
21:00 -2°C° 0.5 mm 5 m/S 756 mmHg 91%
22:00 -3°C° 0.5 mm 4 m/S 756 mmHg 92%
23:00 -2°C° 0.3 mm 3 m/S 756 mmHg 90%

8 März, Montag

Zeit Temperatur Niederschläge Wind Luftdruck Luftfeuchtigkeit
00:00 -3°C° 0.3 mm 2 m/S 756 mmHg 88%
01:00 -3°C° 0.3 mm 2 m/S 756 mmHg 86%
02:00 -3°C° 0 mm 2 m/S 756 mmHg 86%
03:00 -4°C° 0 mm 2 m/S 756 mmHg 86%
04:00 -4°C° 0 mm 2 m/S 756 mmHg 86%
05:00 -4°C° 0 mm 2 m/S 757 mmHg 87%
06:00 -4°C° 0 mm 2 m/S 757 mmHg 87%
07:00 -4°C° 0 mm 2 m/S 757 mmHg 87%
08:00 -2°C° 0 mm 3 m/S 757 mmHg 79%
09:00 -1°C° 0 mm 3 m/S 758 mmHg 70%
10:00 +1°C° 0 mm 3 m/S 758 mmHg 61%
11:00 0°C° 0 mm 4 m/S 758 mmHg 59%
12:00 0°C° 0 mm 4 m/S 758 mmHg 57%
13:00 +1°C° 0 mm 4 m/S 759 mmHg 55%
14:00 +1°C° 0 mm 4 m/S 759 mmHg 57%
15:00 0°C° 0 mm 4 m/S 759 mmHg 58%
16:00 0°C° 0 mm 4 m/S 759 mmHg 60%
17:00 -1°C° 0 mm 4 m/S 759 mmHg 66%
18:00 -2°C° 0 mm 3 m/S 760 mmHg 72%
19:00 -4°C° 0 mm 3 m/S 760 mmHg 78%
20:00 -3°C° 0 mm 2 m/S 760 mmHg 80%
21:00 -4°C° 0 mm 2 m/S 761 mmHg 82%
22:00 -4°C° 0 mm 2 m/S 761 mmHg 85%
23:00 -2°C° 0 mm 1 m/S 761 mmHg 85%

9 März, Dienstag

Zeit Temperatur Niederschläge Wind Luftdruck Luftfeuchtigkeit
00:00 -3°C° 0 mm 1 m/S 761 mmHg 85%
01:00 -3°C° 0 mm 1 m/S 762 mmHg 85%
02:00 -3°C° 0 mm 1 m/S 762 mmHg 84%
03:00 -3°C° 0 mm 1 m/S 762 mmHg 83%
04:00 -2°C° 0 mm 1 m/S 762 mmHg 82%
05:00 -2°C° 0 mm 1 m/S 762 mmHg 81%
06:00 -2°C° 0 mm 1 m/S 762 mmHg 80%
07:00 -2°C° 0 mm 1 m/S 762 mmHg 78%
08:00 -1°C° 0 mm 1 m/S 762 mmHg 71%
09:00 0°C° 0 mm 1 m/S 762 mmHg 65%
10:00 -1°C° 0 mm 2 m/S 762 mmHg 58%
11:00 -1°C° 0 mm 2 m/S 762 mmHg 54%
12:00 +1°C° 0 mm 2 m/S 762 mmHg 49%
13:00 +2°C° 0 mm 2 m/S 762 mmHg 45%
14:00 +2°C° 0 mm 2 m/S 761 mmHg 46%
15:00 +2°C° 0 mm 2 m/S 761 mmHg 48%
16:00 +2°C° 0 mm 2 m/S 761 mmHg 49%
17:00 +1°C° 0 mm 2 m/S 761 mmHg 54%
18:00 -1°C° 0 mm 2 m/S 761 mmHg 59%
19:00 -2°C° 0 mm 2 m/S 761 mmHg 64%
20:00 -2°C° 0 mm 3 m/S 761 mmHg 65%
21:00 -4°C° 0 mm 3 m/S 761 mmHg 66%
22:00 -4°C° 0 mm 3 m/S 761 mmHg 68%
23:00 -2°C° 0 mm 3 m/S 760 mmHg 67%

10 März, Mittwoch

Zeit Temperatur Niederschläge Wind Luftdruck Luftfeuchtigkeit
00:00 -3°C° 0 mm 4 m/S 760 mmHg 65%
01:00 -3°C° 0 mm 4 m/S 760 mmHg 64%
02:00 -3°C° 0 mm 4 m/S 759 mmHg 73%
03:00 -2°C° 0 mm 4 m/S 759 mmHg 81%
04:00 -2°C° 0 mm 4 m/S 758 mmHg 90%
05:00 -2°C° 0 mm 4 m/S 758 mmHg 92%
06:00 -1°C° 0 mm 4 m/S 758 mmHg 94%
07:00 -1°C° 0 mm 4 m/S 757 mmHg 96%
08:00 0°C° 0 mm 4 m/S 757 mmHg 94%
09:00 0°C° 0 mm 5 m/S 757 mmHg 92%
10:00 0°C° 0 mm 5 m/S 757 mmHg 90%
11:00 +1°C° 0 mm 5 m/S 756 mmHg 85%
12:00 +2°C° 0 mm 5 m/S 756 mmHg 81%
13:00 +3°C° 0 mm 5 m/S 755 mmHg 77%
14:00 +3°C° 0 mm 5 m/S 755 mmHg 75%
15:00 +4°C° 0 mm 4 m/S 754 mmHg 73%
16:00 +5°C° 0 mm 4 m/S 753 mmHg 72%
17:00 +4°C° 0 mm 4 m/S 753 mmHg 73%
18:00 +2°C° 0 mm 5 m/S 752 mmHg 75%
19:00 +1°C° 0 mm 5 m/S 751 mmHg 76%
20:00 +2°C° 0 mm 5 m/S 751 mmHg 78%
21:00 +2°C° 0 mm 6 m/S 750 mmHg 79%
22:00 +2°C° 0 mm 6 m/S 749 mmHg 81%
23:00 +2°C° 0.1 mm 7 m/S 748 mmHg 84%
Mehr zeigen

Wir brauchen deine Erlaubnis

Meteoprog und unser Service Anbieter werden persönliche Daten aufbewahren, so wie Cookies, Geräte Bezeichnung oder ähnliche Technologien von deinem Gerät und Prozess, so wie Persönliche Daten Inhalte und Werbungen, genauso wie social Media und den Verkehr zu analysieren.

  • Aufbewahrung und/oder Zugang zu deiner Geräte Informationen.

    Cookies, Geräte Bezeichnung oder andere Informationen, können aufbewahrt oder Zugang zu deinem Gerät erhalten, für den Grund, der oben angegeben wird.

  • Personalisierte Werbung und Inhalte, Messungen, Einblick in das Publikum und Produkt Entwicklung.

    Werbungen und Inhalte können personalisiert werden, basierend auf ein Profil. Mehr Daten können besser personalisierte Werbungen und Inhalte hinzufügen. Werbung und Inhalte können gezeigt und gemessen werden. Einblicke über das Publikum, welche die Werbung gesehen haben und den Inhalt, können abgeleitet werden. So wie Daten können genutzt werden, um es zu verbessern oder die Benutzer Erfahrung zu verbessern das System und die Software.

Wenn du “Ich stimme zu” klickst, erlaubst du uns, die Cookies zu benutzen die Geräte Bezeichnung, den Web oder ähnliche Technologien zu benutzen. Deine Settings, können in deinem Gerät bei deinem Browser geändert werden.

Für den bestimmten Zweck, berechtigten Interessen beruhen darauf, mehr als auf den Inhalt. Du kannst mehr darüber in unseren Privaten und Cookie Politik lesen.